Time,TemperatureF,DewpointF,PressureIn,WindDirection,WindDirectionDegrees,WindSpeedMPH,WindSpeedGustMPH,Humidity,HourlyPrecipIn,Conditions,Clouds,dailyrainin,SoftwareType,DateUTC
2013-07-17 00:00:00,77.5,70.9,29.03,SSW,202,0.0,0.9,80,0.00,,---,0.00,VWS V14.01,2013-07-17 05:00:00,
2013-07-17 00:01:00,77.4,70.7,29.36,SSW,202,0.0,0.0,80,0.00,,,0.00,meteohub,2013-07-17 05:01:00,
2013-07-17 00:02:00,77.4,70.7,29.36,SSW,202,0.0,0.0,80,0.00,,,0.00,meteohub,2013-07-17 05:02:00,
2013-07-17 00:07:00,77.2,70.9,29.36,SSW,202,0.0,0.0,81,0.00,,,0.00,meteohub,2013-07-17 05:07:00,
2013-07-17 00:12:00,77.0,71.1,29.36,SSW,202,0.0,2.0,82,0.00,,,0.00,meteohub,2013-07-17 05:12:00,
2013-07-17 00:15:00,77.0,71.4,29.06,SSW,202,0.0,1.6,83,0.00,,---,0.00,VWS V14.01,2013-07-17 05:15:00,
2013-07-17 00:17:00,77.0,71.4,29.36,SW,225,0.0,2.0,83,0.00,,,0.00,meteohub,2013-07-17 05:17:00,
2013-07-17 00:22:00,76.6,71.8,29.36,SW,225,0.0,2.0,85,0.00,,,0.00,meteohub,2013-07-17 05:22:00,
2013-07-17 00:27:00,76.6,72.1,29.36,SW,225,0.0,2.0,86,0.00,,,0.00,meteohub,2013-07-17 05:27:00,
2013-07-17 00:30:00,76.5,72.3,29.06,SSW,202,0.0,2.2,87,0.00,,---,0.00,VWS V14.01,2013-07-17 05:30:00,
2013-07-17 00:32:00,76.5,72.3,29.36,SW,225,0.0,2.0,87,0.00,,,0.00,meteohub,2013-07-17 05:32:00,
2013-07-17 00:37:00,76.5,72.3,29.36,WSW,248,0.0,2.0,87,0.00,,,0.00,meteohub,2013-07-17 05:37:00,
2013-07-17 00:42:00,76.3,72.5,29.36,SSW,202,0.0,0.0,88,0.00,,,0.00,meteohub,2013-07-17 05:42:00,
2013-07-17 00:45:00,76.3,72.5,29.06,SSW,202,0.0,0.0,88,0.00,,---,0.00,VWS V14.01,2013-07-17 05:45:00,
2013-07-17 00:47:00,76.1,72.3,29.36,SSW,202,0.0,0.0,88,0.00,,,0.00,meteohub,2013-07-17 05:47:00,
2013-07-17 00:52:00,76.1,72.3,29.36,WSW,248,0.0,0.0,88,0.00,,,0.00,meteohub,2013-07-17 05:52:00,
2013-07-17 00:57:00,75.9,72.1,29.36,SSW,202,0.0,0.0,88,0.00,,,0.00,meteohub,2013-07-17 05:57:00,
2013-07-17 01:00:00,75.9,72.4,29.06,SSW,202,0.0,0.0,89,0.00,,---,0.00,VWS V14.01,2013-07-17 06:00:00,
2013-07-17 01:02:00,75.7,72.3,29.36,SSW,202,0.0,0.0,89,0.00,,,0.00,meteohub,2013-07-17 06:02:00,
2013-07-17 01:07:00,75.6,72.1,29.36,SW,225,0.0,0.0,89,0.00,,,0.00,meteohub,2013-07-17 06:07:00,
2013-07-17 01:12:00,75.6,72.1,29.36,SSW,202,0.0,0.0,89,0.00,,,0.00,meteohub,2013-07-17 06:12:00,
2013-07-17 01:15:00,75.4,71.9,29.06,SSW,202,0.0,0.0,89,0.00,,---,0.00,VWS V14.01,2013-07-17 06:15:00,
2013-07-17 01:17:00,75.4,72.3,29.36,South,180,0.0,0.0,90,0.00,,,0.00,meteohub,2013-07-17 06:17:00,
2013-07-17 01:22:00,75.4,72.3,29.36,South,180,0.0,0.0,90,0.00,,,0.00,meteohub,2013-07-17 06:22:00,
2013-07-17 01:27:00,75.2,72.1,29.36,SSW,202,0.0,0.0,90,0.00,,,0.00,meteohub,2013-07-17 06:27:00,
2013-07-17 01:30:00,75.4,72.2,29.06,WSW,248,0.0,0.0,90,0.00,,---,0.00,VWS V14.01,2013-07-17 06:30:00,
2013-07-17 01:32:00,75.4,72.5,29.36,SW,225,0.0,0.0,91,0.00,,,0.00,meteohub,2013-07-17 06:32:00,
2013-07-17 01:37:00,75.4,72.5,29.36,SW,225,0.0,0.0,91,0.00,,,0.00,meteohub,2013-07-17 06:37:00,
2013-07-17 01:42:00,75.4,72.5,29.36,SW,225,0.0,0.0,91,0.00,,,0.00,meteohub,2013-07-17 06:42:00,
2013-07-17 01:45:00,75.2,72.4,29.09,SW,225,0.0,0.0,91,0.00,,---,0.00,VWS V14.01,2013-07-17 06:45:00,
2013-07-17 01:47:00,75.2,72.3,29.36,SSW,202,0.0,0.0,91,0.00,,,0.00,meteohub,2013-07-17 06:47:00,
2013-07-17 01:52:00,75.2,72.7,29.36,SW,225,0.0,0.0,92,0.00,,,0.00,meteohub,2013-07-17 06:52:00,
2013-07-17 01:57:00,75.2,72.7,29.36,SSW,202,2.0,0.0,92,0.00,,,0.00,meteohub,2013-07-17 06:57:00,
2013-07-17 02:00:00,75.2,72.4,29.09,SW,225,2.0,2.7,91,0.00,,---,0.00,VWS V14.01,2013-07-17 07:00:00,
2013-07-17 02:02:00,75.2,72.3,29.36,SW,225,3.0,3.0,91,0.00,,,0.00,meteohub,2013-07-17 07:02:00,
2013-07-17 02:07:00,75.2,72.3,29.36,SSW,202,0.0,3.0,91,0.00,,,0.00,meteohub,2013-07-17 07:07:00,
2013-07-17 02:12:00,75.0,72.1,29.36,SSW,202,0.0,3.0,91,0.00,,,0.00,meteohub,2013-07-17 07:12:00,
2013-07-17 02:15:00,75.0,72.2,29.09,South,180,0.0,3.1,91,0.00,,---,0.00,VWS V14.01,2013-07-17 07:15:00,
2013-07-17 02:17:00,74.8,72.0,29.36,SSW,202,0.0,3.0,91,0.00,,,0.00,meteohub,2013-07-17 07:17:00,
2013-07-17 02:22:00,74.7,71.8,29.36,South,180,0.0,2.0,91,0.00,,,0.00,meteohub,2013-07-17 07:22:00,
2013-07-17 02:27:00,74.5,72.0,29.36,SSW,202,0.0,2.0,92,0.00,,,0.00,meteohub,2013-07-17 07:27:00,
2013-07-17 02:30:00,74.5,72.0,29.09,SSW,202,0.9,1.6,92,0.00,,---,0.00,VWS V14.01,2013-07-17 07:30:00,
2013-07-17 02:32:00,74.3,71.8,29.36,SSW,202,0.0,1.0,92,0.00,,,0.00,meteohub,2013-07-17 07:32:00,
2013-07-17 02:37:00,74.1,71.6,29.36,SSW,202,1.0,1.0,92,0.00,,,0.00,meteohub,2013-07-17 07:37:00,
2013-07-17 02:42:00,74.1,71.6,29.36,SW,225,2.0,2.0,92,0.00,,,0.00,meteohub,2013-07-17 07:42:00,
2013-07-17 02:45:00,74.1,72.0,29.09,SSW,202,0.0,2.2,93,0.00,,---,0.00,VWS V14.01,2013-07-17 07:45:00,
2013-07-17 02:47:00,74.1,72.0,29.36,SW,225,0.0,2.0,93,0.00,,,0.00,meteohub,2013-07-17 07:47:00,
2013-07-17 02:52:00,74.1,72.3,29.36,SW,225,0.0,2.0,94,0.00,,,0.00,meteohub,2013-07-17 07:52:00,
2013-07-17 02:57:00,74.1,72.3,29.36,SW,225,0.0,2.0,94,0.00,,,0.00,meteohub,2013-07-17 07:57:00,
2013-07-17 03:00:00,73.9,71.8,29.09,SSW,202,0.0,0.0,93,0.00,,---,0.00,VWS V14.01,2013-07-17 08:00:00,
2013-07-17 03:02:00,73.9,71.8,29.36,SSW,202,0.0,0.0,93,0.00,,,0.00,meteohub,2013-07-17 08:02:00,
2013-07-17 03:07:00,73.9,71.8,29.36,SW,225,1.0,0.0,93,0.00,,,0.00,meteohub,2013-07-17 08:07:00,
2013-07-17 03:12:00,73.9,71.8,29.36,SW,225,1.0,1.0,93,0.00,,,0.00,meteohub,2013-07-17 08:12:00,
2013-07-17 03:15:00,73.9,71.8,29.09,SW,225,2.0,2.0,93,0.00,,---,0.00,VWS V14.01,2013-07-17 08:15:00,
2013-07-17 03:17:00,73.8,71.6,29.36,SW,225,0.0,1.0,93,0.00,,,0.00,meteohub,2013-07-17 08:17:00,
2013-07-17 03:22:00,73.8,71.6,29.36,SSW,202,1.0,2.0,93,0.00,,,0.00,meteohub,2013-07-17 08:22:00,
2013-07-17 03:30:00,73.6,71.4,29.09,SW,225,0.0,2.0,93,0.00,,---,0.00,VWS V14.01,2013-07-17 08:30:00,
2013-07-17 03:45:00,73.4,71.3,29.11,SW,225,0.0,1.3,93,0.00,,---,0.00,VWS V14.01,2013-07-17 08:45:00,
2013-07-17 03:52:00,73.4,71.2,29.36,SW,225,3.0,3.0,93,0.00,,,0.00,meteohub,2013-07-17 08:52:00,
2013-07-17 03:57:00,73.4,71.2,29.36,SSW,202,1.0,3.0,93,0.00,,,0.00,meteohub,2013-07-17 08:57:00,
2013-07-17 04:00:00,73.4,71.3,29.11,SSW,202,0.0,3.4,93,0.00,,---,0.00,VWS V14.01,2013-07-17 09:00:00,
2013-07-17 04:02:00,73.4,70.9,29.36,South,180,2.0,3.0,92,0.00,,,0.00,meteohub,2013-07-17 09:02:00,
2013-07-17 04:08:00,73.2,71.1,29.36,SSW,202,2.0,3.0,93,0.00,,,0.00,meteohub,2013-07-17 09:08:00,
2013-07-17 04:13:00,73.2,71.1,29.36,SW,225,0.0,3.0,93,0.00,,,0.00,meteohub,2013-07-17 09:13:00,
2013-07-17 04:15:00,73.0,70.9,29.11,SSW,202,1.3,2.9,93,0.00,,---,0.00,VWS V14.01,2013-07-17 09:15:00,
2013-07-17 04:18:00,73.0,70.9,29.36,SSW,202,2.0,3.0,93,0.00,,,0.00,meteohub,2013-07-17 09:18:00,
2013-07-17 04:23:00,72.9,70.7,29.36,SSW,202,2.0,3.0,93,0.00,,,0.00,meteohub,2013-07-17 09:23:00,
2013-07-17 04:28:00,72.9,70.7,29.36,SW,225,0.0,2.0,93,0.00,,,0.00,meteohub,2013-07-17 09:28:00,
2013-07-17 04:33:00,72.9,70.7,29.36,SW,225,0.0,2.0,93,0.00,,,0.00,meteohub,2013-07-17 09:33:00,
2013-07-17 04:38:00,72.7,70.5,29.39,SW,225,0.0,2.0,93,0.00,,,0.00,meteohub,2013-07-17 09:38:00,
2013-07-17 04:44:00,72.5,70.3,29.39,SW,225,0.0,0.0,93,0.00,,,0.00,meteohub,2013-07-17 09:44:00,
2013-07-17 04:45:00,72.5,70.4,29.11,SW,225,0.0,2.5,93,0.00,,---,0.00,VWS V14.01,2013-07-17 09:45:00,
2013-07-17 04:49:00,72.5,70.3,29.39,SW,225,0.0,0.0,93,0.00,,,0.00,meteohub,2013-07-17 09:49:00,
2013-07-17 04:54:00,72.5,70.7,29.39,SSW,202,0.0,0.0,94,0.00,,,0.00,meteohub,2013-07-17 09:54:00,
2013-07-17 04:59:00,72.3,70.5,29.39,SW,225,1.0,0.0,94,0.00,,,0.00,meteohub,2013-07-17 09:59:00,
2013-07-17 05:00:00,72.3,70.5,29.11,SW,225,1.1,2.9,94,0.00,,---,0.00,VWS V14.01,2013-07-17 10:00:00,
2013-07-17 05:04:00,72.3,70.5,29.39,SW,225,0.0,3.0,94,0.00,,,0.00,meteohub,2013-07-17 10:04:00,
2013-07-17 05:09:00,72.1,70.3,29.39,SW,225,0.0,3.0,94,0.00,,,0.00,meteohub,2013-07-17 10:09:00,
2013-07-17 05:14:00,72.1,70.3,29.39,SW,225,0.0,3.0,94,0.00,,,0.00,meteohub,2013-07-17 10:14:00,
2013-07-17 05:15:00,72.1,70.3,29.11,SW,225,0.0,2.5,94,0.00,,---,0.00,VWS V14.01,2013-07-17 10:15:00,
2013-07-17 05:20:00,72.1,70.3,29.39,SW,225,2.0,2.0,94,0.00,,,0.00,meteohub,2013-07-17 10:20:00,
2013-07-17 05:25:00,72.1,70.3,29.39,SW,225,0.0,2.0,94,0.00,,,0.00,meteohub,2013-07-17 10:25:00,
2013-07-17 05:30:00,72.1,70.3,29.39,WSW,248,3.0,3.0,94,0.00,,,0.00,meteohub,2013-07-17 10:30:00,
2013-07-17 05:35:00,72.0,70.2,29.39,SSW,202,0.0,3.0,94,0.00,,,0.00,meteohub,2013-07-17 10:35:00,
2013-07-17 05:40:00,72.0,70.2,29.39,SW,225,2.0,3.0,94,0.00,,,0.00,meteohub,2013-07-17 10:40:00,
2013-07-17 05:45:00,71.8,70.0,29.39,SW,225,2.0,3.0,94,0.00,,,0.00,meteohub,2013-07-17 10:45:00,
2013-07-17 05:50:00,71.8,70.0,29.39,SW,225,0.0,2.0,94,0.00,,,0.00,meteohub,2013-07-17 10:50:00,
2013-07-17 05:56:00,71.6,69.8,29.39,SSW,202,0.0,2.0,94,0.00,,,0.00,meteohub,2013-07-17 10:56:00,
2013-07-17 06:00:00,71.6,69.8,29.11,SW,225,0.0,1.6,94,0.00,,---,0.00,VWS V14.01,2013-07-17 11:00:00,
2013-07-17 06:01:00,71.6,69.8,29.39,SSW,202,0.0,2.0,94,0.00,,,0.00,meteohub,2013-07-17 11:01:00,
2013-07-17 06:06:00,71.4,70.0,29.39,SSW,202,0.0,1.0,95,0.00,,,0.00,meteohub,2013-07-17 11:06:00,
2013-07-17 06:11:00,71.6,70.2,29.39,SW,225,0.0,1.0,95,0.00,,,0.00,meteohub,2013-07-17 11:11:00,
2013-07-17 06:15:00,71.6,70.1,29.11,SSW,202,0.0,1.1,95,0.00,,---,0.00,VWS V14.01,2013-07-17 11:15:00,
2013-07-17 06:16:00,71.6,70.2,29.39,SSW,202,0.0,1.0,95,0.00,,,0.00,meteohub,2013-07-17 11:16:00,
2013-07-17 06:21:00,71.8,70.3,29.39,SSW,202,2.0,0.0,95,0.00,,,0.00,meteohub,2013-07-17 11:21:00,
2013-07-17 06:26:00,71.8,70.3,29.39,SW,225,0.0,0.0,95,0.00,,,0.00,meteohub,2013-07-17 11:26:00,
2013-07-17 06:30:00,71.8,70.3,29.11,SW,225,0.0,2.5,95,0.00,,---,0.00,VWS V14.01,2013-07-17 11:30:00,
2013-07-17 06:32:00,72.0,70.7,29.39,SW,225,1.0,2.0,96,0.00,,,0.00,meteohub,2013-07-17 11:32:00,
2013-07-17 06:37:00,72.0,70.7,29.39,SW,225,1.0,2.0,96,0.00,,,0.00,meteohub,2013-07-17 11:37:00,
2013-07-17 06:42:00,72.1,70.9,29.39,SSW,202,2.0,2.0,96,0.00,,,0.00,meteohub,2013-07-17 11:42:00,
2013-07-17 06:45:00,72.1,70.9,29.11,SW,225,2.2,3.1,96,0.00,,---,0.00,VWS V14.01,2013-07-17 11:45:00,
2013-07-17 06:47:00,72.3,71.1,29.39,SW,225,1.0,3.0,96,0.00,,,0.00,meteohub,2013-07-17 11:47:00,
2013-07-17 06:52:00,72.3,71.1,29.39,SSW,202,0.0,3.0,96,0.00,,,0.00,meteohub,2013-07-17 11:52:00,
2013-07-17 06:57:00,72.5,71.1,29.39,SW,225,0.0,3.0,95,0.00,,,0.00,meteohub,2013-07-17 11:57:00,
2013-07-17 07:00:00,72.5,71.0,29.11,SW,225,2.7,2.9,95,0.00,,---,0.00,VWS V14.01,2013-07-17 12:00:00,
2013-07-17 07:02:00,72.5,71.1,29.39,SSW,202,3.0,3.0,95,0.00,,,0.00,meteohub,2013-07-17 12:02:00,
2013-07-17 07:07:00,72.5,71.1,29.39,SSW,202,2.0,3.0,95,0.00,,,0.00,meteohub,2013-07-17 12:07:00,
2013-07-17 07:12:00,72.7,71.2,29.39,South,180,0.0,3.0,95,0.00,,,0.00,meteohub,2013-07-17 12:12:00,
2013-07-17 07:15:00,72.7,71.2,29.11,SW,225,1.6,3.6,95,0.00,,---,0.00,VWS V14.01,2013-07-17 12:15:00,
2013-07-17 07:17:00,72.9,71.4,29.39,SSW,202,1.0,3.0,95,0.00,,,0.00,meteohub,2013-07-17 12:17:00,
2013-07-17 07:22:00,72.9,71.4,29.39,SSW,202,1.0,2.0,95,0.00,,,0.00,meteohub,2013-07-17 12:22:00,
2013-07-17 07:27:00,73.0,71.6,29.39,SW,225,1.0,2.0,95,0.00,,,0.00,meteohub,2013-07-17 12:27:00,
2013-07-17 07:30:00,73.2,71.4,29.11,SW,225,0.0,3.6,94,0.00,,---,0.00,VWS V14.01,2013-07-17 12:30:00,
2013-07-17 07:32:00,73.2,71.4,29.39,SSW,202,1.0,4.0,94,0.00,,,0.00,meteohub,2013-07-17 12:32:00,
2013-07-17 07:37:00,73.6,71.8,29.39,SSE,158,2.0,4.0,94,0.00,,,0.00,meteohub,2013-07-17 12:37:00,
2013-07-17 07:42:00,73.8,71.6,29.39,South,180,3.0,4.0,93,0.00,,,0.00,meteohub,2013-07-17 12:42:00,
2013-07-17 07:45:00,73.9,71.8,29.11,SSW,202,0.9,4.3,93,0.00,,---,0.00,VWS V14.01,2013-07-17 12:45:00,
2013-07-17 07:47:00,74.1,72.0,29.39,South,180,0.0,4.0,93,0.00,,,0.00,meteohub,2013-07-17 12:47:00,
2013-07-17 07:52:00,74.3,72.1,29.39,SW,225,2.0,3.0,93,0.00,,,0.00,meteohub,2013-07-17 12:52:00,
2013-07-17 07:57:00,74.7,71.8,29.39,WSW,248,0.0,4.0,91,0.00,,,0.00,meteohub,2013-07-17 12:57:00,
2013-07-17 08:00:00,74.7,71.9,29.15,WSW,248,3.6,5.8,91,0.00,,---,0.00,VWS V14.01,2013-07-17 13:00:00,
2013-07-17 08:02:00,74.8,71.8,29.39,SSW,202,3.0,4.0,90,0.00,,,0.00,meteohub,2013-07-17 13:02:00,
2013-07-17 08:07:00,75.4,71.6,29.39,SSE,158,4.0,5.0,88,0.00,,,0.00,meteohub,2013-07-17 13:07:00,
2013-07-17 08:12:00,75.7,71.6,29.39,SSW,202,3.0,6.0,87,0.00,,,0.00,meteohub,2013-07-17 13:12:00,
2013-07-17 08:15:00,75.9,71.8,29.15,SSW,202,1.1,6.3,87,0.00,,---,0.00,VWS V14.01,2013-07-17 13:15:00,
2013-07-17 08:17:00,76.1,72.0,29.39,SSW,202,0.0,6.0,87,0.00,,,0.00,meteohub,2013-07-17 13:17:00,
2013-07-17 08:22:00,76.5,71.6,29.39,SW,225,4.0,6.0,85,0.00,,,0.00,meteohub,2013-07-17 13:22:00,
2013-07-17 08:27:00,76.8,71.6,29.39,SSW,202,3.0,6.0,84,0.00,,,0.00,meteohub,2013-07-17 13:27:00,
2013-07-17 08:30:00,77.2,71.6,29.15,SSW,202,4.3,6.0,83,0.00,,---,0.00,VWS V14.01,2013-07-17 13:30:00,
2013-07-17 08:32:00,77.4,71.8,29.39,South,180,0.0,6.0,83,0.00,,,0.00,meteohub,2013-07-17 13:32:00,
2013-07-17 08:37:00,77.7,72.5,29.39,SSE,158,2.0,6.0,84,0.00,,,0.00,meteohub,2013-07-17 13:37:00,
2013-07-17 08:42:00,77.9,72.7,29.36,SSW,202,0.0,6.0,84,0.00,,,0.00,meteohub,2013-07-17 13:42:00,
2013-07-17 08:45:00,78.1,72.1,29.15,SW,225,0.9,7.4,82,0.00,,---,0.00,VWS V14.01,2013-07-17 13:45:00,
2013-07-17 08:47:00,78.3,72.3,29.36,WSW,248,4.0,7.0,82,0.00,,,0.00,meteohub,2013-07-17 13:47:00,
2013-07-17 08:52:00,78.6,72.7,29.36,SW,225,4.0,7.0,82,0.00,,,0.00,meteohub,2013-07-17 13:52:00,
2013-07-17 08:57:00,79.0,73.0,29.39,SW,225,0.0,7.0,82,0.00,,,0.00,meteohub,2013-07-17 13:57:00,
2013-07-17 09:00:00,79.2,73.2,29.15,WSW,248,4.0,4.0,82,0.00,,---,0.00,VWS V14.01,2013-07-17 14:00:00,
2013-07-17 09:02:00,79.3,72.3,29.39,SE,135,4.0,4.0,79,0.00,,,0.00,meteohub,2013-07-17 14:02:00,
2013-07-17 09:07:00,80.2,73.0,29.39,South,180,2.0,5.0,79,0.00,,,0.00,meteohub,2013-07-17 14:07:00,
2013-07-17 09:12:00,80.6,73.4,29.36,SW,225,4.0,5.0,79,0.00,,,0.00,meteohub,2013-07-17 14:12:00,
2013-07-17 09:15:00,81.0,73.5,29.15,SSE,158,2.9,4.0,78,0.00,,---,0.00,VWS V14.01,2013-07-17 14:15:00,
2013-07-17 09:17:00,81.3,73.4,29.36,SSW,202,3.0,4.0,77,0.00,,,0.00,meteohub,2013-07-17 14:17:00,
2013-07-17 09:22:00,81.3,71.8,29.36,SSW,202,4.0,6.0,73,0.00,,,0.00,meteohub,2013-07-17 14:22:00,
2013-07-17 09:27:00,81.3,71.8,29.39,SSW,202,1.0,8.0,73,0.00,,,0.00,meteohub,2013-07-17 14:27:00,
2013-07-17 09:30:00,81.3,72.2,29.15,South,180,2.7,7.8,74,0.00,,---,0.00,VWS V14.01,2013-07-17 14:30:00,
2013-07-17 09:32:00,81.3,71.8,29.39,SW,225,4.0,8.0,73,0.00,,,0.00,meteohub,2013-07-17 14:32:00,
2013-07-17 09:37:00,81.5,71.6,29.39,WSW,248,4.0,6.0,72,0.00,,,0.00,meteohub,2013-07-17 14:37:00,
2013-07-17 09:42:00,81.9,71.6,29.39,SSW,202,2.0,5.0,71,0.00,,,0.00,meteohub,2013-07-17 14:42:00,
2013-07-17 09:45:00,82.2,72.3,29.15,SW,225,3.1,7.8,72,0.00,,---,0.00,VWS V14.01,2013-07-17 14:45:00,
2013-07-17 09:47:00,82.8,72.9,29.39,SSW,202,1.0,5.0,72,0.00,,,0.00,meteohub,2013-07-17 14:47:00,
2013-07-17 09:52:00,83.7,73.6,29.39,SW,225,2.0,5.0,72,0.00,,,0.00,meteohub,2013-07-17 14:52:00,
2013-07-17 09:57:00,85.1,73.4,29.39,SW,225,2.0,5.0,68,0.00,,,0.00,meteohub,2013-07-17 14:57:00,
2013-07-17 10:00:00,85.6,73.0,29.15,SSW,202,3.1,6.3,66,0.00,,---,0.00,VWS V14.01,2013-07-17 15:00:00,
2013-07-17 10:02:00,85.8,72.1,29.39,South,180,4.0,5.0,64,0.00,,,0.00,meteohub,2013-07-17 15:02:00,
2013-07-17 10:07:00,86.2,71.6,29.39,West,270,5.0,5.0,62,0.00,,,0.00,meteohub,2013-07-17 15:07:00,
2013-07-17 10:12:00,86.2,70.7,29.36,West,270,4.0,7.0,60,0.00,,,0.00,meteohub,2013-07-17 15:12:00,
2013-07-17 10:15:00,86.4,71.8,29.15,West,270,4.0,7.8,62,0.00,,---,0.00,VWS V14.01,2013-07-17 15:15:00,
2013-07-17 10:17:00,86.9,71.2,29.36,South,180,5.0,7.0,60,0.00,,,0.00,meteohub,2013-07-17 15:17:00,
2013-07-17 10:22:00,87.1,71.4,29.36,South,180,4.0,7.0,60,0.00,,,0.00,meteohub,2013-07-17 15:22:00,
2013-07-17 10:27:00,87.4,72.3,29.39,SSW,202,6.0,7.0,61,0.00,,,0.00,meteohub,2013-07-17 15:27:00,
2013-07-17 10:30:00,87.8,71.7,29.11,South,180,3.4,6.9,59,0.00,,---,0.00,VWS V14.01,2013-07-17 15:30:00,
2013-07-17 10:32:00,88.0,71.4,29.39,South,180,4.0,7.0,58,0.00,,,0.00,meteohub,2013-07-17 15:32:00,
2013-07-17 10:37:00,88.0,71.4,29.39,South,180,6.0,6.0,58,0.00,,,0.00,meteohub,2013-07-17 15:37:00,
2013-07-17 10:42:00,87.4,70.9,29.36,SSW,202,5.0,7.0,58,0.00,,,0.00,meteohub,2013-07-17 15:42:00,
2013-07-17 10:47:00,87.1,70.0,29.36,WSW,248,3.0,7.0,57,0.00,,,0.00,meteohub,2013-07-17 15:47:00,
2013-07-17 10:52:00,87.4,70.9,29.36,SSW,202,7.0,10.0,58,0.00,,,0.00,meteohub,2013-07-17 15:52:00,
2013-07-17 10:57:00,88.2,71.1,29.39,North,0,1.0,10.0,57,0.00,,,0.00,meteohub,2013-07-17 15:57:00,
2013-07-17 11:00:00,88.9,71.2,29.11,SW,225,3.1,9.8,56,0.00,,---,0.00,VWS V14.01,2013-07-17 16:00:00,
2013-07-17 11:02:00,89.1,70.7,29.39,SW,225,5.0,10.0,55,0.00,,,0.00,meteohub,2013-07-17 16:02:00,
2013-07-17 11:07:00,89.2,69.8,29.39,West,270,8.0,9.0,53,0.00,,,0.00,meteohub,2013-07-17 16:07:00,
2013-07-17 11:12:00,89.2,69.3,29.39,SSW,202,4.0,8.0,52,0.00,,,0.00,meteohub,2013-07-17 16:12:00,
2013-07-17 11:15:00,89.2,69.3,29.11,SW,225,4.0,10.7,52,0.00,,---,0.00,VWS V14.01,2013-07-17 16:15:00,
2013-07-17 11:17:00,89.6,69.6,29.39,South,180,6.0,11.0,52,0.00,,,0.00,meteohub,2013-07-17 16:17:00,
2013-07-17 11:22:00,89.8,69.3,29.39,West,270,5.0,11.0,51,0.00,,,0.00,meteohub,2013-07-17 16:22:00,
2013-07-17 11:27:00,90.1,69.6,29.39,WSW,248,9.0,11.0,51,0.00,,,0.00,meteohub,2013-07-17 16:27:00,
2013-07-17 11:30:00,90.1,68.4,29.11,West,270,2.2,9.6,49,0.00,,---,0.00,VWS V14.01,2013-07-17 16:30:00,
2013-07-17 11:32:00,90.7,68.9,29.39,WSW,248,3.0,9.0,49,0.00,,,0.00,meteohub,2013-07-17 16:32:00,
2013-07-17 11:37:00,90.5,68.7,29.39,SSW,202,5.0,9.0,49,0.00,,,0.00,meteohub,2013-07-17 16:37:00,
2013-07-17 11:42:00,90.7,69.4,29.39,WSW,248,6.0,9.0,50,0.00,,,0.00,meteohub,2013-07-17 16:42:00,
2013-07-17 11:45:00,90.9,69.7,29.11,SW,225,4.7,9.2,50,0.00,,---,0.00,VWS V14.01,2013-07-17 16:45:00,
2013-07-17 11:47:00,91.0,69.8,29.39,SW,225,4.0,8.0,50,0.00,,,0.00,meteohub,2013-07-17 16:47:00,
2013-07-17 11:52:00,91.6,69.6,29.39,SSW,202,5.0,8.0,49,0.00,,,0.00,meteohub,2013-07-17 16:52:00,
2013-07-17 11:57:00,91.8,69.8,29.39,WSW,248,5.0,8.0,49,0.00,,,0.00,meteohub,2013-07-17 16:57:00,
2013-07-17 12:00:00,91.2,68.8,29.11,South,180,3.8,10.1,48,0.00,,---,0.00,VWS V14.01,2013-07-17 17:00:00,
2013-07-17 12:02:00,91.4,68.4,29.39,SW,225,7.0,10.0,47,0.00,,,0.00,meteohub,2013-07-17 17:02:00,
2013-07-17 12:07:00,91.6,68.5,29.39,SSW,202,7.0,10.0,47,0.00,,,0.00,meteohub,2013-07-17 17:07:00,
2013-07-17 12:12:00,91.9,68.2,29.39,SW,225,3.0,10.0,46,0.00,,,0.00,meteohub,2013-07-17 17:12:00,
2013-07-17 12:15:00,92.3,67.9,29.11,SW,225,11.0,11.0,45,0.00,,---,0.00,VWS V14.01,2013-07-17 17:15:00,
2013-07-17 12:17:00,91.9,67.5,29.39,SSW,202,4.0,8.0,45,0.00,,,0.00,meteohub,2013-07-17 17:17:00,
2013-07-17 12:22:00,93.7,69.1,29.39,West,270,2.0,11.0,45,0.00,,,0.00,meteohub,2013-07-17 17:22:00,
2013-07-17 12:27:00,93.9,68.7,29.39,South,180,3.0,11.0,44,0.00,,,0.00,meteohub,2013-07-17 17:27:00,
2013-07-17 12:32:00,93.9,68.7,29.39,WSW,248,3.0,9.0,44,0.00,,,0.00,meteohub,2013-07-17 17:32:00,
2013-07-17 12:37:00,94.3,69.6,29.39,SSW,202,6.0,9.0,45,0.00,,,0.00,meteohub,2013-07-17 17:37:00,
2013-07-17 12:42:00,94.1,68.2,29.39,South,180,6.0,9.0,43,0.00,,,0.00,meteohub,2013-07-17 17:42:00,
2013-07-17 12:45:00,93.9,67.4,29.11,SW,225,13.2,13.2,42,0.00,,---,0.00,VWS V14.01,2013-07-17 17:45:00,
2013-07-17 12:47:00,94.1,67.5,29.39,SSW,202,4.0,9.0,42,0.00,,,0.00,meteohub,2013-07-17 17:47:00,
2013-07-17 12:52:00,94.8,68.9,29.39,SSW,202,3.0,13.0,43,0.00,,,0.00,meteohub,2013-07-17 17:52:00,
2013-07-17 12:57:00,95.7,69.6,29.39,SSW,202,4.0,13.0,43,0.00,,,0.00,meteohub,2013-07-17 17:57:00,
2013-07-17 13:00:00,96.4,70.3,29.11,West,270,6.3,13.2,43,0.00,,---,0.00,VWS V14.01,2013-07-17 18:00:00,
2013-07-17 13:02:00,96.3,69.4,29.39,West,270,7.0,8.0,42,0.00,,,0.00,meteohub,2013-07-17 18:02:00,
2013-07-17 13:07:00,95.4,68.5,29.39,South,180,5.0,7.0,42,0.00,,,0.00,meteohub,2013-07-17 18:07:00,
2013-07-17 13:12:00,95.7,67.5,29.39,SSW,202,6.0,7.0,40,0.00,,,0.00,meteohub,2013-07-17 18:12:00,
2013-07-17 13:15:00,95.0,66.9,29.11,WSW,248,5.6,10.1,40,0.00,,---,0.00,VWS V14.01,2013-07-17 18:15:00,
2013-07-17 13:17:00,94.8,67.5,29.39,SW,225,6.0,9.0,41,0.00,,,0.00,meteohub,2013-07-17 18:17:00,
2013-07-17 13:22:00,95.7,68.9,29.39,SSW,202,4.0,10.0,42,0.00,,,0.00,meteohub,2013-07-17 18:22:00,
2013-07-17 13:27:00,96.4,68.9,29.39,East,90,3.0,10.0,41,0.00,,,0.00,meteohub,2013-07-17 18:27:00,
2013-07-17 13:30:00,97.0,68.7,29.11,SSW,202,2.0,8.1,40,0.00,,---,0.00,VWS V14.01,2013-07-17 18:30:00,
2013-07-17 13:32:00,97.0,69.4,29.39,SW,225,8.0,8.0,41,0.00,,,0.00,meteohub,2013-07-17 18:32:00,
2013-07-17 13:37:00,94.8,66.7,29.39,West,270,3.0,10.0,40,0.00,,,0.00,meteohub,2013-07-17 18:37:00,
2013-07-17 13:42:00,95.2,67.8,29.39,West,270,3.0,10.0,41,0.00,,,0.00,meteohub,2013-07-17 18:42:00,
2013-07-17 13:45:00,95.4,67.9,29.09,SW,225,2.9,8.5,41,0.00,,---,0.00,VWS V14.01,2013-07-17 18:45:00,
2013-07-17 13:47:00,95.0,66.9,29.39,SW,225,4.0,10.0,40,0.00,,,0.00,meteohub,2013-07-17 18:47:00,
2013-07-17 13:52:00,94.3,66.9,29.39,SW,225,3.0,9.0,41,0.00,,,0.00,meteohub,2013-07-17 18:52:00,
2013-07-17 13:57:00,94.8,66.7,29.36,West,270,9.0,9.0,40,0.00,,,0.00,meteohub,2013-07-17 18:57:00,
2013-07-17 14:00:00,95.9,68.4,29.09,SSE,158,4.3,8.7,41,0.00,,---,0.00,VWS V14.01,2013-07-17 19:00:00,
2013-07-17 14:02:00,95.9,68.4,29.36,SSE,158,7.0,9.0,41,0.00,,,0.00,meteohub,2013-07-17 19:02:00,
2013-07-17 14:07:00,95.9,67.6,29.36,WSW,248,2.0,11.0,40,0.00,,,0.00,meteohub,2013-07-17 19:07:00,
2013-07-17 14:12:00,97.5,69.1,29.36,SSW,202,2.0,11.0,40,0.00,,,0.00,meteohub,2013-07-17 19:12:00,
2013-07-17 14:15:00,96.6,67.6,29.06,SSW,202,5.6,10.7,39,0.00,,---,0.00,VWS V14.01,2013-07-17 19:15:00,
2013-07-17 14:17:00,95.2,66.4,29.36,SSW,202,6.0,11.0,39,0.00,,,0.00,meteohub,2013-07-17 19:17:00,
2013-07-17 14:22:00,94.1,66.0,29.36,SSW,202,2.0,11.0,40,0.00,,,0.00,meteohub,2013-07-17 19:22:00,
2013-07-17 14:27:00,92.7,66.2,29.36,SSW,202,3.0,11.0,42,0.00,,,0.00,meteohub,2013-07-17 19:27:00,
2013-07-17 14:30:00,92.1,65.8,29.09,South,180,5.4,11.0,42,0.00,,---,0.00,VWS V14.01,2013-07-17 19:30:00,
2013-07-17 14:32:00,92.3,66.6,29.36,SW,225,2.0,11.0,43,0.00,,,0.00,meteohub,2013-07-17 19:32:00,
2013-07-17 14:37:00,93.9,68.7,29.36,SW,225,3.0,7.0,44,0.00,,,0.00,meteohub,2013-07-17 19:37:00,
2013-07-17 14:42:00,95.2,68.4,29.36,South,180,4.0,8.0,42,0.00,,,0.00,meteohub,2013-07-17 19:42:00,
2013-07-17 14:45:00,95.2,67.8,29.09,South,180,6.3,8.1,41,0.00,,---,0.00,VWS V14.01,2013-07-17 19:45:00,
2013-07-17 14:47:00,95.4,67.8,29.36,South,180,3.0,8.0,41,0.00,,,0.00,meteohub,2013-07-17 19:47:00,
2013-07-17 14:52:00,95.7,68.2,29.36,WSW,248,4.0,8.0,41,0.00,,,0.00,meteohub,2013-07-17 19:52:00,
2013-07-17 14:57:00,96.1,68.5,29.36,South,180,3.0,8.0,41,0.00,,,0.00,meteohub,2013-07-17 19:57:00,
2013-07-17 15:00:00,95.9,67.7,29.06,West,270,5.4,10.3,40,0.00,,---,0.00,VWS V14.01,2013-07-17 20:00:00,
2013-07-17 15:02:00,96.3,68.7,29.36,SW,225,4.0,6.0,41,0.00,,,0.00,meteohub,2013-07-17 20:02:00,
2013-07-17 15:07:00,96.4,67.5,29.36,SW,225,6.0,8.0,39,0.00,,,0.00,meteohub,2013-07-17 20:07:00,
2013-07-17 15:12:00,96.6,67.6,29.34,SW,225,4.0,9.0,39,0.00,,,0.00,meteohub,2013-07-17 20:12:00,
2013-07-17 15:15:00,96.3,67.3,29.06,WSW,248,6.3,12.1,39,0.00,,---,0.00,VWS V14.01,2013-07-17 20:15:00,
2013-07-17 15:17:00,97.2,68.7,29.34,SW,225,2.0,9.0,40,0.00,,,0.00,meteohub,2013-07-17 20:17:00,
2013-07-17 15:22:00,98.6,68.5,29.34,SW,225,2.0,12.0,38,0.00,,,0.00,meteohub,2013-07-17 20:22:00,
2013-07-17 15:28:00,98.4,68.4,29.34,SSE,158,4.0,12.0,38,0.00,,,0.00,meteohub,2013-07-17 20:28:00,
2013-07-17 15:30:00,97.7,67.1,29.06,SW,225,4.3,6.5,37,0.00,,---,0.00,VWS V14.01,2013-07-17 20:30:00,
2013-07-17 15:33:00,97.3,67.5,29.34,SSW,202,2.0,6.0,38,0.00,,,0.00,meteohub,2013-07-17 20:33:00,
2013-07-17 15:38:00,96.4,65.8,29.34,SW,225,8.0,8.0,37,0.00,,,0.00,meteohub,2013-07-17 20:38:00,
2013-07-17 15:43:00,96.4,66.7,29.34,WSW,248,4.0,9.0,38,0.00,,,0.00,meteohub,2013-07-17 20:43:00,
2013-07-17 15:45:00,96.6,66.9,29.03,SW,225,2.9,8.7,38,0.00,,---,0.00,VWS V14.01,2013-07-17 20:45:00,
2013-07-17 15:48:00,97.2,66.6,29.34,West,270,2.0,9.0,37,0.00,,,0.00,meteohub,2013-07-17 20:48:00,
2013-07-17 15:53:00,98.1,68.2,29.34,South,180,2.0,9.0,38,0.00,,,0.00,meteohub,2013-07-17 20:53:00,
2013-07-17 15:59:00,96.8,66.9,29.34,SSW,202,10.0,10.0,38,0.00,,,0.00,meteohub,2013-07-17 20:59:00,
2013-07-17 16:04:00,96.3,66.6,29.34,WSW,248,9.0,9.0,38,0.00,,,0.00,meteohub,2013-07-17 21:04:00,
2013-07-17 16:09:00,96.4,67.5,29.34,SW,225,0.0,10.0,39,0.00,,,0.00,meteohub,2013-07-17 21:09:00,
2013-07-17 16:14:00,96.6,67.6,29.34,South,180,2.0,10.0,39,0.00,,,0.00,meteohub,2013-07-17 21:14:00,
2013-07-17 16:15:00,97.0,67.9,29.03,SW,225,0.9,10.1,39,0.00,,---,0.00,VWS V14.01,2013-07-17 21:15:00,
2013-07-17 16:19:00,97.5,68.4,29.34,SE,135,3.0,9.0,39,0.00,,,0.00,meteohub,2013-07-17 21:19:00,
2013-07-17 16:24:00,96.8,66.9,29.34,SSW,202,3.0,6.0,38,0.00,,,0.00,meteohub,2013-07-17 21:24:00,
2013-07-17 16:29:00,96.3,66.6,29.34,SW,225,6.0,6.0,38,0.00,,,0.00,meteohub,2013-07-17 21:29:00,
2013-07-17 16:30:00,95.7,66.1,29.03,WSW,248,4.0,8.1,38,0.00,,---,0.00,VWS V14.01,2013-07-17 21:30:00,
2013-07-17 16:35:00,95.7,66.7,29.34,South,180,1.0,8.0,39,0.00,,,0.00,meteohub,2013-07-17 21:35:00,
2013-07-17 16:40:00,96.8,67.8,29.34,SW,225,4.0,10.0,39,0.00,,,0.00,meteohub,2013-07-17 21:40:00,
2013-07-17 16:45:00,95.4,67.3,29.34,South,180,3.0,10.0,40,0.00,,,0.00,meteohub,2013-07-17 21:45:00,
2013-07-17 16:50:00,95.5,67.3,29.34,SSE,158,2.0,9.0,40,0.00,,,0.00,meteohub,2013-07-17 21:50:00,
2013-07-17 16:55:00,95.2,67.1,29.34,South,180,5.0,9.0,40,0.00,,,0.00,meteohub,2013-07-17 21:55:00,
2013-07-17 17:00:00,95.5,68.0,29.34,SW,225,3.0,8.0,41,0.00,,,0.00,meteohub,2013-07-17 22:00:00,
2013-07-17 17:06:00,95.0,68.4,29.34,SSW,202,2.0,10.0,42,0.00,,,0.00,meteohub,2013-07-17 22:06:00,
2013-07-17 17:11:00,95.2,67.8,29.34,South,180,1.0,10.0,41,0.00,,,0.00,meteohub,2013-07-17 22:11:00,
2013-07-17 17:15:00,95.2,67.8,29.03,South,180,2.5,7.4,41,0.00,,---,0.00,VWS V14.01,2013-07-17 22:15:00,
2013-07-17 17:16:00,95.4,67.8,29.34,SW,225,1.0,7.0,41,0.00,,,0.00,meteohub,2013-07-17 22:16:00,
2013-07-17 17:21:00,94.5,67.1,29.34,WSW,248,4.0,9.0,41,0.00,,,0.00,meteohub,2013-07-17 22:21:00,
2013-07-17 17:26:00,93.7,66.4,29.34,SSE,158,3.0,9.0,41,0.00,,,0.00,meteohub,2013-07-17 22:26:00,
2013-07-17 17:30:00,94.5,67.1,29.03,SW,225,3.1,8.7,41,0.00,,---,0.00,VWS V14.01,2013-07-17 22:30:00,
2013-07-17 17:31:00,94.6,67.3,29.34,SSW,202,3.0,9.0,41,0.00,,,0.00,meteohub,2013-07-17 22:31:00,
2013-07-17 17:37:00,95.2,67.8,29.34,SE,135,2.0,7.0,41,0.00,,,0.00,meteohub,2013-07-17 22:37:00,
2013-07-17 17:42:00,94.3,66.9,29.31,SSW,202,3.0,7.0,41,0.00,,,0.00,meteohub,2013-07-17 22:42:00,
2013-07-17 17:45:00,93.9,67.4,29.03,WSW,248,3.4,7.2,42,0.00,,---,0.00,VWS V14.01,2013-07-17 22:45:00,
2013-07-17 17:47:00,93.7,67.1,29.31,SSW,202,2.0,7.0,42,0.00,,,0.00,meteohub,2013-07-17 22:47:00,
2013-07-17 17:52:00,93.7,67.1,29.31,SSE,158,4.0,7.0,42,0.00,,,0.00,meteohub,2013-07-17 22:52:00,
2013-07-17 17:57:00,92.8,67.1,29.31,SSE,158,3.0,6.0,43,0.00,,,0.00,meteohub,2013-07-17 22:57:00,
2013-07-17 18:00:00,91.8,66.1,29.00,SSW,202,2.0,6.0,43,0.00,,---,0.00,VWS V14.01,2013-07-17 23:00:00,
2013-07-17 18:02:00,91.6,65.8,29.31,SSW,202,1.0,6.0,43,0.00,,,0.00,meteohub,2013-07-17 23:02:00,
2013-07-17 18:07:00,91.2,66.9,29.31,SSE,158,2.0,5.0,45,0.00,,,0.00,meteohub,2013-07-17 23:07:00,
2013-07-17 18:12:00,92.3,67.8,29.31,SSE,158,2.0,4.0,45,0.00,,,0.00,meteohub,2013-07-17 23:12:00,
2013-07-17 18:15:00,92.7,68.2,29.00,WSW,248,2.9,4.0,45,0.00,,---,0.00,VWS V14.01,2013-07-17 23:15:00,
2013-07-17 18:17:00,92.3,67.8,29.31,SSW,202,2.0,4.0,45,0.00,,,0.00,meteohub,2013-07-17 23:17:00,
2013-07-17 18:22:00,92.3,67.8,29.31,SSE,158,3.0,3.0,45,0.00,,,0.00,meteohub,2013-07-17 23:22:00,
2013-07-17 18:27:00,92.3,68.5,29.28,South,180,2.0,3.0,46,0.00,,,0.00,meteohub,2013-07-17 23:27:00,
2013-07-17 18:30:00,92.3,68.5,29.00,SSW,202,5.4,5.4,46,0.00,,---,0.00,VWS V14.01,2013-07-17 23:30:00,
2013-07-17 18:32:00,92.3,68.5,29.28,SW,225,5.0,6.0,46,0.00,,,0.00,meteohub,2013-07-17 23:32:00,
2013-07-17 18:37:00,91.4,68.4,29.28,South,180,2.0,6.0,47,0.00,,,0.00,meteohub,2013-07-17 23:37:00,
2013-07-17 18:42:00,90.9,68.4,29.28,SSW,202,2.0,6.0,48,0.00,,,0.00,meteohub,2013-07-17 23:42:00,
2013-07-17 18:45:00,90.7,68.9,29.00,SSW,202,2.7,5.4,49,0.00,,---,0.00,VWS V14.01,2013-07-17 23:45:00,
2013-07-17 18:47:00,90.5,69.3,29.28,SW,225,2.0,6.0,50,0.00,,,0.00,meteohub,2013-07-17 23:47:00,
2013-07-17 18:52:00,90.3,69.1,29.28,South,180,2.0,6.0,50,0.00,,,0.00,meteohub,2013-07-17 23:52:00,
2013-07-17 18:57:00,90.1,69.6,29.28,West,270,3.0,4.0,51,0.00,,,0.00,meteohub,2013-07-17 23:57:00,
2013-07-17 19:00:00,90.1,69.6,28.97,SSE,158,5.4,5.4,51,0.00,,---,0.00,VWS V14.01,2013-07-18 00:00:00,
2013-07-17 19:02:00,90.3,70.3,29.28,SSW,202,0.0,4.0,52,0.00,,,0.00,meteohub,2013-07-18 00:02:00,
2013-07-17 19:07:00,90.1,70.2,29.28,SSE,158,1.0,4.0,52,0.00,,,0.00,meteohub,2013-07-18 00:07:00,
2013-07-17 19:12:00,89.8,69.8,29.28,SSE,158,0.0,4.0,52,0.00,,,0.00,meteohub,2013-07-18 00:12:00,
2013-07-17 19:15:00,89.8,70.4,29.00,SSW,202,2.0,5.4,53,0.00,,---,0.00,VWS V14.01,2013-07-18 00:15:00,
2013-07-17 19:17:00,89.8,70.3,29.28,SSW,202,2.0,3.0,53,0.00,,,0.00,meteohub,2013-07-18 00:17:00,
2013-07-17 19:22:00,89.8,70.3,29.28,SSW,202,0.0,3.0,53,0.00,,,0.00,meteohub,2013-07-18 00:22:00,
2013-07-17 19:27:00,89.4,71.1,29.28,SSW,202,2.0,3.0,55,0.00,,,0.00,meteohub,2013-07-18 00:27:00,
2013-07-17 19:30:00,89.2,71.0,29.00,South,180,2.0,3.8,55,0.00,,---,0.00,VWS V14.01,2013-07-18 00:30:00,
2013-07-17 19:32:00,89.1,70.2,29.28,SSE,158,0.0,4.0,54,0.00,,,0.00,meteohub,2013-07-18 00:32:00,
2013-07-17 19:37:00,88.7,70.5,29.28,SSE,158,1.0,4.0,55,0.00,,,0.00,meteohub,2013-07-18 00:37:00,
2013-07-17 19:42:00,88.7,71.1,29.28,SSW,202,1.0,3.0,56,0.00,,,0.00,meteohub,2013-07-18 00:42:00,
2013-07-17 19:45:00,88.5,70.8,28.97,SSE,158,0.0,3.6,56,0.00,,---,0.00,VWS V14.01,2013-07-18 00:45:00,
2013-07-17 19:47:00,88.5,70.9,29.28,SSE,158,2.0,4.0,56,0.00,,,0.00,meteohub,2013-07-18 00:47:00,
2013-07-17 19:52:00,88.2,71.1,29.28,SW,225,1.0,4.0,57,0.00,,,0.00,meteohub,2013-07-18 00:52:00,
2013-07-17 19:57:00,88.2,71.4,29.28,South,180,0.0,4.0,58,0.00,,,0.00,meteohub,2013-07-18 00:57:00,
2013-07-17 20:00:00,88.0,71.4,28.97,SSW,202,0.0,2.0,58,0.00,,---,0.00,VWS V14.01,2013-07-18 01:00:00,
2013-07-17 20:02:00,88.2,71.4,29.28,South,180,0.0,3.0,58,0.00,,,0.00,meteohub,2013-07-18 01:02:00,
2013-07-17 20:07:00,87.8,71.6,29.28,South,180,0.0,1.0,59,0.00,,,0.00,meteohub,2013-07-18 01:07:00,
2013-07-17 20:12:00,88.2,72.0,29.25,SSW,202,0.0,1.0,59,0.00,,,0.00,meteohub,2013-07-18 01:12:00,
2013-07-17 20:15:00,87.6,72.0,28.97,SSE,158,0.0,0.0,60,0.00,,---,0.00,VWS V14.01,2013-07-18 01:15:00,
2013-07-17 20:17:00,87.3,72.1,29.25,SSE,158,0.0,0.0,61,0.00,,,0.00,meteohub,2013-07-18 01:17:00,
2013-07-17 20:22:00,87.1,72.0,29.25,SSE,158,0.0,0.0,61,0.00,,,0.00,meteohub,2013-07-18 01:22:00,
2013-07-17 20:27:00,86.7,71.6,29.28,South,180,0.0,0.0,61,0.00,,,0.00,meteohub,2013-07-18 01:27:00,
2013-07-17 20:30:00,86.4,71.3,28.97,South,180,0.0,0.0,61,0.00,,---,0.00,VWS V14.01,2013-07-18 01:30:00,
2013-07-17 20:32:00,86.2,71.1,29.28,SSE,158,0.0,0.0,61,0.00,,,0.00,meteohub,2013-07-18 01:32:00,
2013-07-17 20:37:00,86.0,71.4,29.28,SSE,158,1.0,2.0,62,0.00,,,0.00,meteohub,2013-07-18 01:37:00,
2013-07-17 20:42:00,85.6,72.1,29.28,SSE,158,0.0,2.0,64,0.00,,,0.00,meteohub,2013-07-18 01:42:00,
2013-07-17 20:45:00,85.5,71.9,28.97,South,180,0.0,3.1,64,0.00,,---,0.00,VWS V14.01,2013-07-18 01:45:00,
2013-07-17 20:47:00,85.3,71.8,29.28,SSE,158,0.0,2.0,64,0.00,,,0.00,meteohub,2013-07-18 01:47:00,
2013-07-17 20:52:00,84.7,71.6,29.28,SSE,158,0.0,2.0,65,0.00,,,0.00,meteohub,2013-07-18 01:52:00,
2013-07-17 20:57:00,84.6,71.4,29.28,SSE,158,1.0,2.0,65,0.00,,,0.00,meteohub,2013-07-18 01:57:00,
2013-07-17 21:00:00,84.4,71.3,28.97,SSW,202,0.0,2.0,65,0.00,,---,0.00,VWS V14.01,2013-07-18 02:00:00,
2013-07-17 21:02:00,84.4,71.2,29.28,SSE,158,0.0,2.0,65,0.00,,,0.00,meteohub,2013-07-18 02:02:00,
2013-07-17 21:07:00,84.0,71.4,29.28,SSE,158,0.0,2.0,66,0.00,,,0.00,meteohub,2013-07-18 02:07:00,
2013-07-17 21:12:00,84.0,72.0,29.28,SSE,158,0.0,4.0,67,0.00,,,0.00,meteohub,2013-07-18 02:12:00,
2013-07-17 21:15:00,83.8,71.3,28.97,SSE,158,0.0,4.9,66,0.00,,---,0.00,VWS V14.01,2013-07-18 02:15:00,
2013-07-17 21:17:00,83.8,71.8,29.28,SSE,158,0.0,4.0,67,0.00,,,0.00,meteohub,2013-07-18 02:17:00,
2013-07-17 21:22:00,83.7,71.6,29.28,SE,135,2.0,4.0,67,0.00,,,0.00,meteohub,2013-07-18 02:22:00,
2013-07-17 21:27:00,83.3,71.2,29.28,SSE,158,4.0,4.0,67,0.00,,,0.00,meteohub,2013-07-18 02:27:00,
2013-07-17 21:30:00,83.3,71.2,28.97,South,180,0.0,4.3,67,0.00,,---,0.00,VWS V14.01,2013-07-18 02:30:00,
2013-07-17 21:32:00,83.1,71.1,29.28,SSE,158,0.0,4.0,67,0.00,,,0.00,meteohub,2013-07-18 02:32:00,
2013-07-17 21:37:00,82.9,71.2,29.28,SSE,158,0.0,4.0,68,0.00,,,0.00,meteohub,2013-07-18 02:37:00,
2013-07-17 21:42:00,82.8,71.1,29.28,South,180,0.0,4.0,68,0.00,,,0.00,meteohub,2013-07-18 02:42:00,
2013-07-17 21:45:00,82.6,71.0,28.97,South,180,0.0,1.3,68,0.00,,---,0.00,VWS V14.01,2013-07-18 02:45:00,
2013-07-17 21:47:00,82.4,70.7,29.28,South,180,0.0,1.0,68,0.00,,,0.00,meteohub,2013-07-18 02:47:00,
2013-07-17 21:52:00,82.2,71.1,29.28,South,180,0.0,1.0,69,0.00,,,0.00,meteohub,2013-07-18 02:52:00,
2013-07-17 21:57:00,82.0,70.9,29.28,SSE,158,0.0,0.0,69,0.00,,,0.00,meteohub,2013-07-18 02:57:00,
2013-07-17 22:00:00,82.0,71.3,28.97,SSE,158,0.0,0.0,70,0.00,,---,0.00,VWS V14.01,2013-07-18 03:00:00,
2013-07-17 22:02:00,81.9,71.1,29.28,SSE,158,0.0,1.0,70,0.00,,,0.00,meteohub,2013-07-18 03:02:00,
2013-07-17 22:07:00,81.9,71.1,29.28,South,180,0.0,1.0,70,0.00,,,0.00,meteohub,2013-07-18 03:07:00,
2013-07-17 22:12:00,81.9,71.1,29.28,SSE,158,0.0,1.0,70,0.00,,,0.00,meteohub,2013-07-18 03:12:00,
2013-07-17 22:15:00,81.7,70.9,28.94,SSE,158,0.0,0.0,70,0.00,,---,0.00,VWS V14.01,2013-07-18 03:15:00,
2013-07-17 22:17:00,81.5,71.2,29.28,SSW,202,0.0,0.0,71,0.00,,,0.00,meteohub,2013-07-18 03:17:00,
2013-07-17 22:22:00,81.5,71.2,29.28,South,180,0.0,0.0,71,0.00,,,0.00,meteohub,2013-07-18 03:22:00,
2013-07-17 22:27:00,81.3,71.4,29.28,SW,225,0.0,0.0,72,0.00,,,0.00,meteohub,2013-07-18 03:27:00,
2013-07-17 22:30:00,81.3,71.4,28.97,SSW,202,0.0,0.0,72,0.00,,---,0.00,VWS V14.01,2013-07-18 03:30:00,
2013-07-17 22:32:00,81.1,71.2,29.28,SW,225,0.0,0.0,72,0.00,,,0.00,meteohub,2013-07-18 03:32:00,
2013-07-17 22:37:00,81.1,71.2,29.28,SSW,202,0.0,0.0,72,0.00,,,0.00,meteohub,2013-07-18 03:37:00,
2013-07-17 22:42:00,81.0,71.4,29.28,SSW,202,0.0,0.0,73,0.00,,,0.00,meteohub,2013-07-18 03:42:00,
2013-07-17 22:45:00,80.8,71.3,28.97,SSW,202,0.0,0.9,73,0.00,,---,0.00,VWS V14.01,2013-07-18 03:45:00,
2013-07-17 22:47:00,80.8,71.8,29.28,SW,225,0.0,0.0,74,0.00,,,0.00,meteohub,2013-07-18 03:47:00,
2013-07-17 22:52:00,80.6,71.6,29.28,SSW,202,0.0,0.0,74,0.00,,,0.00,meteohub,2013-07-18 03:52:00,
2013-07-17 22:57:00,80.6,71.6,29.25,South,180,0.0,1.0,74,0.00,,,0.00,meteohub,2013-07-18 03:57:00,
2013-07-17 23:00:00,80.6,71.9,28.97,SSE,158,1.6,1.6,75,0.00,,---,0.00,VWS V14.01,2013-07-18 04:00:00,
2013-07-17 23:01:00,80.4,71.8,29.25,SW,225,0.0,1.0,75,0.00,,,0.00,meteohub,2013-07-18 04:01:00,
2013-07-17 23:02:00,80.4,71.8,29.25,SW,225,0.0,1.0,75,0.00,,,0.00,meteohub,2013-07-18 04:02:00,
2013-07-17 23:07:00,80.4,71.8,29.25,South,180,0.0,2.0,75,0.00,,,0.00,meteohub,2013-07-18 04:07:00,
2013-07-17 23:12:00,80.2,72.0,29.31,SSE,158,0.0,2.0,76,0.00,,,0.00,meteohub,2013-07-18 04:12:00,
2013-07-17 23:15:00,80.1,71.8,28.97,South,180,0.0,2.2,76,0.00,,---,0.00,VWS V14.01,2013-07-18 04:15:00,
2013-07-17 23:18:00,80.1,71.8,29.31,SSW,202,0.0,2.0,76,0.00,,,0.00,meteohub,2013-07-18 04:18:00,
2013-07-17 23:23:00,79.9,72.0,29.31,SSW,202,0.0,0.0,77,0.00,,,0.00,meteohub,2013-07-18 04:23:00,
2013-07-17 23:28:00,79.7,71.8,29.28,SSW,202,0.0,0.0,77,0.00,,,0.00,meteohub,2013-07-18 04:28:00,
2013-07-17 23:30:00,79.7,71.9,28.97,SSW,202,0.0,0.0,77,0.00,,---,0.00,VWS V14.01,2013-07-18 04:30:00,
2013-07-17 23:33:00,79.5,71.6,29.28,SW,225,0.0,0.0,77,0.00,,,0.00,meteohub,2013-07-18 04:33:00,
2013-07-17 23:38:00,79.5,72.1,29.28,SSW,202,0.0,0.0,78,0.00,,,0.00,meteohub,2013-07-18 04:38:00,
2013-07-17 23:43:00,79.3,72.0,29.28,SW,225,0.0,1.0,78,0.00,,,0.00,meteohub,2013-07-18 04:43:00,
2013-07-17 23:45:00,79.3,71.9,28.97,SW,225,0.0,1.3,78,0.00,,---,0.00,VWS V14.01,2013-07-18 04:45:00,
2013-07-17 23:48:00,79.2,71.8,29.28,South,180,0.0,1.0,78,0.00,,,0.00,meteohub,2013-07-18 04:48:00,
2013-07-17 23:54:00,79.2,72.1,29.28,SW,225,0.0,2.0,79,0.00,,,0.00,meteohub,2013-07-18 04:54:00,
2013-07-17 23:59:00,79.0,72.0,29.28,SSW,202,0.0,2.0,79,0.00,,,0.00,meteohub,2013-07-18 04:59:00,